2023-005B (55240 NORAD) Tracking and Keplerian Element Data

This shows tracking and keplerian element data for the satellite.

Feedback or suggestion? Click here.




ElementValue
Catalog55240
Name2023-005B
Epoch Orbit25
Epoch Day14.35039054
Epoch Year2023
RAAN13.8869
Inclination28.5073
Eccentricity0.0203755
Argument of Perigee125.7997
Mean Anonmoly14.0231
Mean Motion15.75940515
Decay Rate2.048E-05
L11 55240U 23005B 23014.35039054 .00002048 -64591-5 00000+0 0 9999
L22 55240 28.5073 13.8869 0203755 125.7997 14.0231 15.75940515 250



Live tracking and technical data element details for 2023-005B (NORAD 55240). 2023-005B can be tracked NOW for your location showing map with azimuth and elevation plus other details from your city location.







IsCatalogInMostPopularTable: catalog: 55240, numindb: 9
Update: records affected: 1



GetName: 55240 2023-005B

Hit Count: updated at: Tue, 07 Feb 2023 16:03:58 GMT